Location: Unspecified
(0.0000°N, 0.0000°E)
Time: 22:41:05
(UTC+00:00)

Tiangong - Visible Passes

Search period start: 16 May 2025 00:00
Search period end: 26 May 2025 00:00
Orbit: 377 x 386 km, 41.5° (Epoch: 16 May)

Date Brightness Start Highest point End Pass type
(mag) Time Alt. Az. Time Alt. Az. Time Alt. Az.
22 May 0.9 19:47:33 10° WSW 19:47:49 12° WSW 19:47:49 12° WSW visible
23 May -1.9 18:46:44 10° SSW 18:49:45 45° SE 18:52:05 15° ENE visible
24 May 0.6 19:23:05 10° W 19:25:25 20° NW 19:27:47 10° N visible
25 May 1.5 05:17:36 10° NNE 05:18:18 11° NE 05:19:00 10° NE visible
25 May -1.4 18:21:24 10° SW 18:24:28 57° NW 18:27:32 10° NE visible
